• In Belgium
  • List of Countries
  • For 7 days
  • Water Temperature
  • Satellite Maps
  • Weather Map
  • Weather Widgets
  • user-avatar
    Login

    Hourly Weather Zhdenevo

    Today, 21 September, Friday

    Time Temperature Precipitation Wind Pressure Humidity
    00:00 +20°C° 0 mm 1 mps 719 mmHg 76%
    01:00 +20°C° 0 mm 1 mps 719 mmHg 76%
    02:00 +20°C° 0 mm 1 mps 719 mmHg 76%
    03:00 +17°C° 0 mm 0 mps 719 mmHg 76%
    04:00 +17°C° 0 mm 0 mps 718 mmHg 77%
    05:00 +16°C° 0 mm 0 mps 718 mmHg 78%
    06:00 +16°C° 0 mm 0 mps 718 mmHg 78%
    07:00 +16°C° 0 mm 0 mps 718 mmHg 78%
    08:00 +16°C° 0 mm 0 mps 718 mmHg 79%
    09:00 +17°C° 0 mm 0 mps 719 mmHg 88%
    10:00 +18°C° 0 mm 0 mps 719 mmHg 87%
    11:00 +21°C° 0 mm 1 mps 719 mmHg 87%
    12:00 +21°C° 0 mm 2 mps 719 mmHg 88%
    13:00 +21°C° 0 mm 2 mps 718 mmHg 84%
    14:00 +21°C° 0 mm 2 mps 718 mmHg 83%
    15:00 +22°C° 0 mm 3 mps 718 mmHg 82%
    16:00 +21°C° 0 mm 2 mps 717 mmHg 85%
    17:00 +21°C° 0 mm 2 mps 717 mmHg 88%
    18:00 +21°C° 0 mm 1 mps 717 mmHg 90%
    19:00 +21°C° 0 mm 1 mps 717 mmHg 88%
    20:00 +20°C° 0 mm 1 mps 717 mmHg 88%
    21:00 +20°C° 0 mm 1 mps 716 mmHg 84%
    22:00 +20°C° 0 mm 1 mps 716 mmHg 82%
    23:00 +19°C° 0 mm 1 mps 716 mmHg 81%

    Tomorrow, 22 September, Saturday

    Time Temperature Precipitation Wind Pressure Humidity
    00:00 +19°C° 0 mm 1 mps 716 mmHg 82%
    01:00 +17°C° 0 mm 2 mps 716 mmHg 84%
    02:00 +17°C° 0 mm 2 mps 716 mmHg 85%
    03:00 +17°C° 0 mm 2 mps 716 mmHg 83%
    04:00 +17°C° 0 mm 2 mps 716 mmHg 84%
    05:00 +17°C° 0 mm 2 mps 716 mmHg 85%
    06:00 +16°C° 0 mm 2 mps 715 mmHg 87%
    07:00 +16°C° 0 mm 2 mps 716 mmHg 89%
    08:00 +16°C° 0 mm 1 mps 716 mmHg 94%
    09:00 +17°C° 0.2 mm 2 mps 716 mmHg 98%
    10:00 +14°C° 6.2 mm 5 mps 717 mmHg 100%
    11:00 +13°C° 2 mm 4 mps 717 mmHg 99%
    12:00 +11°C° 0.4 mm 6 mps 717 mmHg 98%
    13:00 +12°C° 2.3 mm 4 mps 717 mmHg 100%
    14:00 +12°C° 2.4 mm 2 mps 718 mmHg 100%
    15:00 +12°C° 3.6 mm 2 mps 717 mmHg 100%
    16:00 +12°C° 2.9 mm 2 mps 716 mmHg 100%
    17:00 +12°C° 0.1 mm 2 mps 717 mmHg 99%
    18:00 +12°C° 0 mm 2 mps 717 mmHg 98%
    19:00 +12°C° 0 mm 1 mps 717 mmHg 98%
    20:00 +11°C° 0 mm 1 mps 718 mmHg 96%
    21:00 +9°C° 0 mm 2 mps 718 mmHg 100%
    22:00 +9°C° 0 mm 2 mps 718 mmHg 100%
    23:00 +10°C° 0 mm 1 mps 718 mmHg 99%

    Day after tomorrow, 23 September, Sunday

    Time Temperature Precipitation Wind Pressure Humidity
    00:00 +10°C° 0 mm 1 mps 719 mmHg 100%
    01:00 +10°C° 0 mm 1 mps 718 mmHg 100%
    02:00 +10°C° 0 mm 1 mps 718 mmHg 100%
    03:00 +10°C° 0 mm 1 mps 718 mmHg 100%
    04:00 +10°C° 0 mm 1 mps 718 mmHg 100%
    05:00 +10°C° 0 mm 1 mps 718 mmHg 100%
    06:00 +9°C° 0 mm 1 mps 718 mmHg 100%
    07:00 +9°C° 0 mm 1 mps 719 mmHg 100%
    08:00 +9°C° 0 mm 1 mps 719 mmHg 100%
    09:00 +9°C° 0 mm 2 mps 719 mmHg 100%
    10:00 +10°C° 0 mm 2 mps 719 mmHg 100%
    11:00 +11°C° 0 mm 3 mps 720 mmHg 100%
    12:00 +12°C° 0 mm 3 mps 720 mmHg 98%
    13:00 +12°C° 0 mm 4 mps 720 mmHg 96%
    14:00 +12°C° 0 mm 4 mps 719 mmHg 94%
    15:00 +13°C° 0 mm 4 mps 719 mmHg 92%
    16:00 +12°C° 0 mm 4 mps 719 mmHg 92%
    17:00 +12°C° 0 mm 4 mps 718 mmHg 93%
    18:00 +11°C° 0.1 mm 3 mps 718 mmHg 100%
    19:00 +11°C° 1 mm 4 mps 717 mmHg 100%
    20:00 +12°C° 0 mm 5 mps 717 mmHg 100%
    21:00 +12°C° 0 mm 5 mps 717 mmHg 100%
    22:00 +12°C° 0 mm 5 mps 716 mmHg 100%
    23:00 +12°C° 0 mm 5 mps 716 mmHg 100%

    24 September, Monday

    Time Temperature Precipitation Wind Pressure Humidity
    00:00 +12°C° 0 mm 5 mps 715 mmHg 100%
    01:00 +11°C° 0 mm 6 mps 714 mmHg 100%
    02:00 +11°C° 0 mm 6 mps 713 mmHg 100%
    03:00 +11°C° 0.5 mm 7 mps 712 mmHg 100%
    04:00 +11°C° 1.3 mm 7 mps 711 mmHg 100%
    05:00 +10°C° 3.8 mm 6 mps 710 mmHg 100%
    06:00 +10°C° 3.8 mm 7 mps 708 mmHg 100%
    07:00 +10°C° 3 mm 6 mps 707 mmHg 100%
    08:00 +10°C° 18.2 mm 5 mps 707 mmHg 100%
    09:00 +12°C° 11.8 mm 5 mps 707 mmHg 100%
    10:00 +12°C° 8.6 mm 8 mps 706 mmHg 100%
    11:00 +13°C° 3 mm 9 mps 706 mmHg 100%
    12:00 +14°C° 2.1 mm 10 mps 707 mmHg 100%
    13:00 +11°C° 0 mm 9 mps 709 mmHg 94%
    14:00 +9°C° 0 mm 8 mps 710 mmHg 97%

    25 September, Tuesday

    Time Temperature Precipitation Wind Pressure Humidity

    26 September, Wednesday

    Time Temperature Precipitation Wind Pressure Humidity
    Show more